Terminal Aerodrome Forecast
Issued by NWS

Home | Current Version | Previous Version | Graphics & Text | Print | Product List | Glossary On
Versions: 1 2 3 4 5 6 7 8 9 10 11 12 13 14 15 16 17 18
993
FTUS43 KTOP 111643 AAC
TAFMHK
TAF AMD
KMHK 111643Z 1117/1212 08006KT P6SM BKN012
     FM111900 18008KT P6SM SCT025 BKN150
     FM120800 35010G18KT P6SM SCT020=

USA.gov is the U.S. government's official web portal to all federal, state and local government web resources and services.